JILIN-01 GAOFEN 3D 30 (52447 NORAD) Tracking and Keplerian Element Data

This shows tracking and keplerian element data for the satellite.

Feedback or suggestion? Click here.




ElementValue
Catalog52447
NameJILIN-01 GAOFEN 3D 30
Epoch Orbit634
Epoch Day167.05564979
Epoch Year2022
RAAN231.7341
Inclination97.6795
Eccentricity0.0016193
Argument of Perigee129.8441
Mean Anonmoly323.6852
Mean Motion15.10029148
Decay Rate3.85E-05
L11 52447U 22048E 22167.05564979 .00003850 00000+0 24011-3 0 9997
L22 52447 97.6795 231.7341 0016193 129.8441 323.6852 15.10029148 6340

Live tracking and technical data element details for JILIN-01 GAOFEN 3D 30 (NORAD 52447). JILIN-01 GAOFEN 3D 30 can be tracked NOW for your location showing map with azimuth and elevation plus other details from your city location.

Track the satellite on the map from your city or location and see movement details for azimuth, elevation, latitude, longitude, range, height, and movement on the map or in text.







IsCatalogInMostPopularTable: catalog: 52447, numindb: 11
Update: records affected: 1



GetName: 52447 JILIN-01 GAOFEN 3D 30

Hit Count: updated at: Sat, 25 Jun 2022 04:50:40 GMT